x

Big Bay, Mi (bigm4) Weather Station

11:40am - Mon 27th Feb 2017 All times are CST. -6 hours from GMT.

  • Wind
    7mph, 10mph gusts
  • Air Temp 28°f
  • Sea Pressure 1016.3mb
  • Big Bay, Mi
  • Big Bay, Mi

More Historic Weather Station data

Upgrade to MSW Pro to gain access to the past 30 days of data for over 8000 Wavebouys and Weather Stations around the globe.

Join Pro

Comparision Forecast

View Surf forecast
   
Mon 02/27 11:40am 7 10 mph 1016.3mb 28f
11:30am 5 8 mph 1016.3mb 29f
11:20am 6 8 mph 1016.6mb 28f
11:10am 3 10 mph 1016.6mb 28f
11:00am 9 14 mph 1016.9mb 28f
10:40am 5 14 mph 1017.3mb 26f
10:30am 5 10 mph 1017.3mb 26f
10:20am 8 18 mph 1017.3mb 25f
10:10am 10 16 mph 1017.3mb 25f
10:00am 8 17 mph 1017.3mb 25f
9:40am 7 15 mph 1017.3mb 26f
9:30am 5 14 mph 1017.3mb 25f
9:20am 7 11 mph 1017.3mb 24f
9:10am 8 13 mph 1017.3mb 24f
9:00am 7 11 mph 1016.9mb 23f
8:40am 5 7 mph 1016.9mb 22f
8:30am 5 6 mph 1016.9mb 21f
8:20am 3 7 mph 1016.9mb 21f
8:10am 5 8 mph 1016.9mb 21f
8:00am 6 8 mph 1016.6mb 20f
7:40am 5 8 mph 1016.3mb 19f
7:30am 3 8 mph 1016.3mb 18f
7:20am 3 9 mph 1016.3mb 16f
7:10am 3 6 mph 1015.9mb 14f
7:00am 3 8 mph 1015.9mb 15f
6:40am 5 8 mph 1015.6mb 14f
6:30am 5 8 mph 1015.6mb 14f
6:20am 5 8 mph 1015.6mb 13f
6:10am 5 10 mph 1015.6mb 11f
6:00am 5 8 mph 1015.6mb 6f
5:40am 2 3 mph 1015.6mb 5f
5:30am 2 3 mph 1015.2mb 5f
5:20am 2 3 mph 1015.2mb 5f
5:10am 2 3 mph 1015.2mb 5f
5:00am 2 5 mph 1015.2mb 6f
4:40am 2
mph
1015.2mb 5f
4:30am 2 3 mph 1015.2mb 6f
4:20am 2 3 mph 1015.2mb 6f
4:10am 2 3 mph 1015.2mb 7f
4:00am 3 5 mph 1014.9mb 7f
3:40am 3 5 mph 1014.9mb 8f
3:30am 3 5 mph 1014.9mb 8f
3:20am 2 5 mph 1014.6mb 9f
3:10am 2 5 mph 1014.9mb 9f
3:00am 3 6 mph 1014.9mb 10f
2:40am 5 6 mph 1014.9mb 13f
2:30am 3 7 mph 1014.9mb 14f
2:20am 5 6 mph 1014.9mb 13f
2:10am 5 6 mph 1014.9mb 14f
2:00am 3 7 mph 1014.6mb 15f
1:40am 5 6 mph 1014.6mb 15f
1:30am 3 6 mph 1014.6mb 14f
1:20am 3 6 mph 1014.2mb 15f
1:10am 3 5 mph 1014.2mb 14f
1:00am 3 5 mph 1014.2mb 16f
12:40am 2 6 mph 1013.9mb 17f
12:30am 3 7 mph 1013.9mb 18f
12:20am 3 6 mph 1013.5mb 18f
12:10am 2 6 mph 1013.5mb 18f
12:00am 3 5 mph 1013.2mb 19f
Sun 02/26 11:40pm 2 5 mph 1013.2mb 19f
11:30pm 2 5 mph 1012.9mb 20f
11:20pm 2 6 mph 1012.9mb 20f
11:10pm 3 6 mph 1012.5mb 19f
11:00pm 1 6 mph 1012.5mb 20f
10:40pm 2 6 mph 1012.2mb 20f
10:30pm 2 6 mph 1012.2mb 20f
10:20pm 3 6 mph 1011.9mb 20f
10:10pm 3 7 mph 1011.9mb 21f
10:00pm 3 7 mph 1011.9mb 21f
9:40pm 1 6 mph 1011.5mb 21f
9:30pm 3 7 mph 1011.2mb 22f
9:20pm 2 8 mph 1011.2mb 22f
9:10pm 3 9 mph 1010.8mb 22f
9:00pm 6 9 mph 1010.8mb 21f
8:40pm 3 7 mph 1010.5mb 22f
8:30pm 5 11 mph 1010.2mb 22f
8:20pm 1 13 mph 1010.2mb 22f
8:10pm 5 9 mph 1009.8mb 22f
8:00pm 3 13 mph 1009.8mb 22f
7:40pm 5 13 mph 1009.5mb 22f
7:30pm 5 11 mph 1009.5mb 22f
7:20pm 7 14 mph 1009.1mb 23f
7:10pm 3 15 mph 1009.1mb 23f
7:00pm 6 15 mph 1008.8mb 23f
6:40pm 7 18 mph 1008.8mb 23f
6:30pm 3 15 mph 1008.5mb 23f
6:20pm 10 25 mph 1008.1mb 24f
6:10pm 11 23 mph 1008.1mb 24f
6:00pm 7 25 mph 1007.8mb 24f
5:40pm 7 22 mph 1007.1mb 25f
5:30pm 9 25 mph 1006.8mb 26f
5:20pm 9 22 mph 1006.8mb 26f
5:10pm 11 22 mph 1006.4mb 26f
5:00pm 8 22 mph 1006.4mb 26f
4:40pm 9 18 mph 1006.1mb 27f
4:30pm 7 18 mph 1005.8mb 27f
4:20pm 9 18 mph 1005.4mb 27f
4:10pm 10 22 mph 1005.1mb 27f
4:00pm 15 24 mph 1005.1mb 27f
3:44pm 14 30 mph 1004.1mb 32f
3:40pm 11 23 mph 1003.7mb 32f
3:30pm 7 17 mph 1003mb 32f
3:20pm 9 17 mph 1003mb 33f
3:10pm 6 18 mph 1002.7mb 33f
3:00pm 6 14 mph 1002.7mb 34f
2:40pm 9 17 mph 1002.7mb 34f
2:30pm 8 17 mph 1002.7mb 34f
2:20pm 10 18 mph 1002.7mb 34f
2:10pm 9 16 mph 1002.7mb 33f
2:00pm 8 17 mph 1002.7mb 32f
1:40pm 11 18 mph 1002.7mb 33f
1:30pm 6 18 mph 1002.7mb 33f
1:20pm 10 16 mph 1002.4mb 33f
1:10pm 6 17 mph 1002.4mb 32f
1:00pm 9 17 mph 1002.7mb 32f
12:40pm 9 17 mph 1002.7mb 33f
12:30pm 6 15 mph 1002.7mb 33f
12:20pm 10 16 mph 1002.7mb 32f
12:10pm 10 17 mph 1003mb 31f
12:00pm 3 17 mph 1003mb 31f
11:50am 6 16 mph 1003.4mb 31f
11:40am 7 17 mph 1003.4mb 31f
11:30am 8 18 mph 1003.4mb 31f
11:20am 11 17 mph 1003.4mb 31f
11:10am 8 15 mph 1003.4mb 30f
11:00am 3 14 mph 1003.4mb 32f
10:50am 5 17 mph 1003.4mb 30f
10:40am 10 20 mph 1003.4mb 30f
10:30am 7 16 mph 1003.7mb 30f
10:20am 8 20 mph 1003.7mb 29f
10:10am 9 18 mph 1003.7mb 29f
10:00am 9 18 mph 1003.7mb 29f
9:50am 7 17 mph 1003.7mb 28f
9:40am 7 11 mph 1003.7mb 28f
9:30am 8 15 mph 1003.7mb 28f
9:20am 9 18 mph 1003.7mb 28f
9:10am 10 16 mph 1003.7mb 27f
9:00am 6 16 mph 1003.7mb 27f
8:50am 6 13 mph 1003.7mb 26f
8:40am 8 16 mph 1003.7mb 26f
8:30am 6 22 mph 1003.7mb 25f
8:20am 7 21 mph 1003.7mb 25f
8:10am 11 17 mph 1003.7mb 25f
8:00am 9 14 mph 1003.7mb 25f
7:40am 7 16 mph 1003.7mb 24f
7:30am 6 17 mph 1003.7mb 24f
7:20am 6 20 mph 1003.7mb 24f
7:10am 7 16 mph 1003.7mb 24f
7:00am 8 17 mph 1003.7mb 24f
6:50am 8 17 mph 1003.7mb 24f
6:40am 8 18 mph 1003.7mb 24f
6:30am 7 15 mph 1003.7mb 24f
6:20am 9 16 mph 1004.1mb 24f
6:10am 6 17 mph 1004.1mb 24f
6:00am 7 18 mph 1004.4mb 25f
5:50am 7 17 mph 1004.1mb 25f
5:40am 6 14 mph 1004.1mb 25f
5:30am 11 17 mph 1004.4mb 25f
5:20am 7 20 mph 1004.4mb 25f
5:10am 7 17 mph 1004.4mb 25f
5:00am 8 17 mph 1004.7mb 25f
4:50am 5 15 mph 1004.7mb 24f
4:40am 7 15 mph 1004.7mb 24f
4:30am 7 11 mph 1005.1mb 24f
4:20am 7 13 mph 1005.4mb 24f
4:10am 6 13 mph 1005.4mb 23f
4:00am 5 11 mph 1005.4mb 23f
3:50am 3 15 mph 1005.4mb 23f
3:40am 7 13 mph 1005.8mb 23f
3:30am 7 15 mph 1005.8mb 23f
3:20am 8 15 mph 1005.8mb 23f
3:10am 9 16 mph 1005.8mb 24f
3:00am 7 13 mph 1005.8mb 24f
2:50am 6 10 mph 1005.8mb 23f
2:40am 7 10 mph 1005.8mb 23f
2:30am 8 11 mph 1006.1mb 23f
2:20am 8 18 mph 1006.1mb 23f
2:10am 9 15 mph 1006.4mb 22f
2:00am 8 17 mph 1006.4mb 23f
1:50am 8 17 mph 1006.4mb 23f
1:40am 8 15 mph 1006.1mb 23f
1:30am 7 16 mph 1006.4mb 23f
1:20am 8 16 mph 1006.4mb 23f
1:10am 6 16 mph 1006.4mb 24f
1:00am 7 14 mph 1006.4mb 23f
12:50am 7 13 mph 1006.4mb 23f
12:40am 8 15 mph 1006.4mb 23f
12:30am 6 10 mph 1006.8mb 23f
12:20am 6 10 mph 1006.8mb 23f
12:10am 6 14 mph 1006.8mb 23f
12:00am 6 10 mph 1006.8mb 23f
Sat 02/25 11:50pm 2 8 mph 1006.8mb 23f
11:40pm 3 7 mph 1006.8mb 23f
11:30pm 3 6 mph 1007.1mb 23f
11:20pm 2 7 mph 1007.1mb 22f
11:10pm 5 7 mph 1007.1mb 22f
11:00pm 3 5 mph 1007.1mb 22f
10:50pm 3 6 mph 1007.1mb 22f
10:40pm 3 6 mph 1007.1mb 23f
10:30pm 2 5 mph 1007.1mb 23f
10:20pm  -  6 mph 1007.1mb 23f
10:10pm 2 6 mph 1007.1mb 22f
10:00pm 3 7 mph 1007.1mb 23f
9:40pm 3 7 mph 1007.1mb 22f
9:30pm 1 5 mph 1007.1mb 22f
9:20pm  -  3 mph 1007.1mb 21f
9:10pm 2 7 mph 1007.1mb 21f
9:00pm  -  6 mph 1007.1mb 21f
8:50pm 6 10 mph 1007.1mb 21f
8:40pm 2 10 mph 1007.1mb 21f
8:30pm 6 10 mph 1006.8mb 22f
8:20pm 5 11 mph 1006.8mb 22f
8:10pm 5 10 mph 1006.8mb 21f
8:00pm 2 11 mph 1006.8mb 21f
7:50pm 3 13 mph 1006.4mb 21f
7:40pm 5 11 mph 1006.8mb 21f
7:30pm 3 8 mph 1006.8mb 21f
7:20pm 5 9 mph 1006.4mb 21f
7:10pm 2 9 mph 1006.4mb 21f
7:00pm 5 9 mph 1006.4mb 21f
6:50pm 3 9 mph 1006.1mb 21f
6:40pm 3 9 mph 1006.1mb 21f
6:30pm 3 10 mph 1006.1mb 21f
6:20pm 2 11 mph 1006.1mb 22f
6:10pm 8 13 mph 1006.1mb 21f
6:00pm 3 10 mph 1005.8mb 21f
5:50pm 3 9 mph 1005.8mb 21f
5:40pm 5 11 mph 1005.8mb 21f
5:30pm 5 8 mph 1005.8mb 21f
5:20pm 2 11 mph 1005.4mb 22f
5:10pm 2 11 mph 1005.8mb 22f
5:00pm 5 14 mph 1005.4mb 22f
4:50pm 6 15 mph 1005.8mb 21f
4:40pm 5 14 mph 1005.4mb 22f
4:30pm 7 14 mph 1005.4mb 22f
4:20pm 6 13 mph 1005.4mb 22f
4:10pm 9 16 mph 1005.4mb 22f
4:00pm 3 11 mph 1005.1mb 22f
3:50pm 7 18 mph 1005.1mb 22f
3:40pm 8 18 mph 1005.1mb 22f
3:30pm 7 15 mph 1004.7mb 22f
3:20pm 6 17 mph 1004.7mb 22f
3:10pm 7 17 mph 1004.7mb 22f
3:00pm 7 18 mph 1004.4mb 22f
2:50pm 8 15 mph 1004.4mb 22f
2:40pm 10 23 mph 1004.4mb 22f
2:30pm 10 18 mph 1004.1mb 22f
2:20pm 10 24 mph 1004.1mb 23f
2:10pm 11 23 mph 1004.1mb 24f
2:01pm 10 29 mph 1003.7mb 24f
2:00pm 10 20 mph 1003.7mb 24f
1:50pm 10 24 mph 1003.7mb 22f
1:40pm 13 23 mph 1003.4mb 22f
1:30pm 10 23 mph 1003.4mb 22f
1:20pm 11 23 mph 1003.4mb 21f
1:10pm 14 29 mph 1003.4mb 21f
1:01pm 9 29 mph 1003mb 21f
1:00pm 9 22 mph 1003.4mb 21f
12:50pm 13 24 mph 1003mb 21f
12:40pm 20 29 mph 1003mb 22f
12:30pm 15 22 mph 1003mb 21f
12:20pm 11 23 mph 1002.7mb 21f
12:10pm 14 24 mph 1002.7mb 20f
12:00pm  -  mph 1003mb -
11:50am 9 23 mph 1002.7mb 19f
11:40am 10 21 mph 1002.7mb 20f
11:30am 15 28 mph 1002.4mb 20f
11:20am 11 30 mph 1002mb 20f
11:10am 13 23 mph 1002.4mb 20f
11:00am 14
mph
1002mb 20f
10:50am 14 22 mph 1002mb 20f
10:40am 17 29 mph 1001.7mb 20f
10:30am 22 30 mph 1001.7mb 20f
10:29am 17 30 mph 1001.4mb 19f
10:20am 13 23 mph 1002mb 19f
10:10am 10 24 mph 1001.7mb 20f
10:00am 20 29 mph 1001.4mb 20f
9:50am 16 28 mph 1001.4mb 20f
9:40am 13 23 mph 1001.4mb 20f
9:30am 14 22 mph 1001mb 20f
9:20am 17 23 mph 1001mb 20f
9:10am 14 25 mph 1001mb 20f
9:00am 17 29 mph 1001mb 20f
8:50am 20 30 mph 1000.7mb 20f
8:43am 21 30 mph 1000.3mb 20f
8:40am 15 25 mph 1000.3mb 20f
8:30am 14 24 mph 1000.7mb 19f
8:20am 14 28 mph 1000.7mb 19f
8:10am 23 28 mph 1000mb 19f
8:00am 10 20 mph 1000.7mb 19f
7:50am 16 25 mph 1000.7mb 19f
7:40am 14 28 mph 1000.7mb 19f
7:30am 16 26 mph 1000.3mb 19f
7:20am 10 26 mph 1000.7mb 19f
7:10am 16 26 mph 1000.3mb 19f
7:00am 14 21 mph 1000.3mb 19f
6:50am 13 24 mph 1000mb 19f
6:40am 14 23 mph 1000mb 19f
6:30am 15 24 mph 1000mb 19f
6:20am 11 20 mph 1000mb 19f
6:10am 14 22 mph 1000mb 19f
6:00am 15 24 mph 999.7mb 19f
5:50am 17 23 mph 999.7mb 19f
5:40am 14 22 mph 999.7mb 19f
5:30am 15 23 mph 999.7mb 20f
5:20am 16 22 mph 1000mb 20f
5:10am 15 22 mph 999.7mb 20f
5:00am 16 26 mph 1000mb 20f
4:50am 15 23 mph 1000mb 20f
4:40am 13 30 mph 1000mb 20f
4:30am 16 30 mph 999.3mb 20f
4:20am 14 25 mph 999.7mb 21f
4:10am 17 26 mph 999.3mb 21f
4:00am 20 28 mph 999.3mb 21f
3:50am 21 26 mph 999.3mb 21f
3:40am 15 23 mph 999.3mb 21f
3:30am 17 23 mph 999.3mb 21f
3:20am 14 25 mph 999.7mb 21f
3:10am 14 23 mph 1000mb 21f
3:00am 17 28 mph 1000.3mb 21f
2:50am 15 22 mph 1000.3mb 21f
2:40am 14 24 mph 1000.3mb 21f
2:30am 17 26 mph 1000.3mb 22f
2:20am 20 28 mph 1000.3mb 21f
2:10am 18 25 mph 1001mb 22f
2:00am 16 28 mph 1001mb 22f
1:50am 17 26 mph 1001.4mb 22f
1:40am 21 25 mph 1001.4mb 22f
1:30am 18 25 mph 1001.7mb 22f
1:20am 18 25 mph 1001.7mb 22f
1:10am 18 24 mph 1001.7mb 22f
1:00am 17 25 mph 1002mb 22f
12:50am 17 24 mph 1001.7mb 22f
12:40am 16 23 mph 1002mb 22f
12:30am 20 25 mph 1002mb 22f
12:20am 17 24 mph 1002mb 22f
12:10am 18 25 mph 1002.4mb 22f
12:00am 15 25 mph 1002.4mb 22f
Fri 02/24 11:50pm 20 25 mph 1002.4mb 23f
11:40pm 20 25 mph 1002.7mb 23f
11:30pm 17 22 mph 1003mb 22f
11:20pm 16 24 mph 1003.4mb 22f
11:10pm 14 24 mph 1003.7mb 22f
11:00pm 17 23 mph 1003.4mb 23f
10:50pm 17 26 mph 1003mb 23f
10:40pm 16 26 mph 1003mb 23f
10:30pm 18 25 mph 1003.4mb 24f
10:20pm 21 29 mph 1003.4mb 24f
10:10pm 24 29 mph 1003mb 24f
10:00pm 23 29 mph 1003mb 24f
9:56pm 24 29 mph 1003mb 24f
9:50pm 23 26 mph 1003.4mb 24f
9:40pm 23 28 mph 1003.7mb 24f
9:30pm 22 26 mph 1003.7mb 24f
9:20pm 21 23 mph 1004.1mb 24f
9:10pm 20 23 mph 1004.4mb 24f
9:00pm 20 23 mph 1004.7mb 24f
8:50pm 16 21 mph 1004.7mb 24f
8:40pm 17 22 mph 1005.1mb 24f
8:30pm 17 23 mph 1004.7mb 24f
8:20pm 18 22 mph 1004.7mb 24f
8:10pm 20 23 mph 1005.1mb 24f
8:00pm 22 25 mph 1005.1mb 24f
7:50pm 20 24 mph 1005.1mb 24f
7:40pm 20 24 mph 1005.1mb 23f
7:30pm 20 24 mph 1005.1mb 23f
7:20pm 18 25 mph 1005.4mb 23f
7:10pm 18 22 mph 1006.1mb 23f
7:00pm 18 22 mph 1006.1mb 23f
6:50pm 20 25 mph 1006.1mb 23f
6:40pm 20 24 mph 1006.1mb 23f
6:30pm 20 24 mph 1006.4mb 23f
6:20pm 21 23 mph 1006.4mb 23f
6:10pm 20 22 mph 1006.4mb 23f
6:00pm 18 22 mph 1006.4mb 23f
5:50pm 20 23 mph 1006.4mb 23f
5:40pm 21 23 mph 1006.4mb 23f
5:30pm 20 23 mph 1006.4mb 23f
5:20pm 18 25 mph 1006.8mb 23f
5:10pm 21 24 mph 1006.8mb 23f
5:00pm 21 24 mph 1006.8mb 23f
4:50pm 23 25 mph 1006.8mb 23f
4:40pm 20 24 mph 1007.1mb 23f
4:30pm 21 23 mph 1007.1mb 23f
4:20pm 20 23 mph 1007.1mb 23f
4:10pm 20 22 mph 1007.1mb 23f
4:00pm 20 23 mph 1007.1mb 23f
3:50pm 21 24 mph 1007.1mb 23f
3:40pm 21 23 mph 1007.1mb 23f
3:30pm 20 23 mph 1007.5mb 23f
3:20pm 18 22 mph 1007.8mb 22f
3:10pm 18 22 mph 1007.8mb 22f
3:00pm 17 21 mph 1008.1mb 22f
2:50pm 17 22 mph 1008.1mb 23f
2:40pm 18 23 mph 1007.8mb 23f
2:30pm 18 23 mph 1007.8mb 23f
2:20pm 20 24 mph 1007.8mb 23f
2:10pm 20 23 mph 1008.1mb 23f
2:00pm 18 22 mph 1008.1mb 23f
1:50pm 17 21 mph 1008.1mb 23f
1:40pm 17 22 mph 1008.5mb 23f
1:30pm 18 24 mph 1008.8mb 23f
1:20pm 21 24 mph 1008.5mb 23f
1:10pm 20 23 mph 1008.8mb 24f
1:00pm 20 23 mph 1008.8mb 24f
12:50pm 21 24 mph 1008.8mb 24f
12:40pm 20 23 mph 1009.1mb 24f
12:30pm 21 22 mph 1009.1mb 24f
12:20pm 20 23 mph 1009.5mb 24f
12:10pm 17 23 mph 1009.5mb 24f
12:00pm 20 23 mph 1009.5mb 24f
11:50am 18 23 mph 1009.5mb 24f
11:40am 18 24 mph 1009.8mb 24f
11:30am 20 23 mph 1009.5mb 24f
11:20am 20 25 mph 1009.5mb 24f
11:10am 18 24 mph 1009.5mb 24f
11:00am 18 23 mph 1009.8mb 24f
10:50am 17 21 mph 1009.8mb 24f
10:40am 18 24 mph 1010.2mb 24f
10:30am 20 24 mph 1010.2mb 24f
10:20am 20 22 mph 1010.2mb 24f
10:10am 18 25 mph 1010.5mb 24f
10:00am 16 21 mph 1010.5mb 24f
9:50am 20 23 mph 1010.5mb 24f
9:40am 21 24 mph 1010.8mb 24f
9:30am 20 23 mph 1010.5mb 24f
9:20am 21 24 mph 1010.5mb 24f
9:10am 20 23 mph 1010.8mb 24f
9:01am 21 24 mph 1011.5mb 24f
9:00am 21 24 mph 1011.2mb 24f
8:50am 17 22 mph 1011.5mb 24f
8:40am 18 22 mph 1011.9mb 24f
8:30am 17 21 mph 1011.9mb 24f
8:20am 18 22 mph 1012.2mb 24f
8:10am 21 23 mph 1011.9mb 24f
8:00am 22 26 mph 1011.5mb 24f
7:50am 17 22 mph 1012.2mb 24f
7:40am 20 23 mph 1012.5mb 24f
7:30am 20 22 mph 1012.5mb 24f
7:20am 21 24 mph 1012.5mb 24f
7:10am 22 28 mph 1012.2mb 24f
7:00am 24 28 mph 1011.9mb 24f
6:50am 22 24 mph 1012.2mb 25f
6:40am 18 23 mph 1012.5mb 24f
6:30am 20 24 mph 1012.5mb 25f
6:20am 20 24 mph 1012.5mb 25f
6:10am 22 25 mph 1012.5mb 25f
6:00am 20 26 mph 1011.9mb 25f
5:50am 20 26 mph 1011.5mb 26f
5:40am 16 25 mph 1011.9mb 26f
5:30am 20 24 mph 1011.9mb 26f
5:20am 20 24 mph 1011.5mb 26f
5:10am 18 25 mph 1011.5mb 26f
5:00am 21 25 mph 1011.9mb 26f
4:50am 21 24 mph 1011.9mb 26f
4:40am 21 23 mph 1011.9mb 26f
4:30am 20 24 mph 1012.2mb 26f
4:20am 18 22 mph 1011.9mb 26f
4:10am 21 26 mph 1012.2mb 26f
4:00am 20 29 mph 1012.2mb 26f
3:50am 17 23 mph 1012.9mb 27f
3:40am 18 23 mph 1013.2mb 27f
3:30am 20 24 mph 1012.9mb 27f
3:20am 20 25 mph 1013.2mb 27f
3:10am 21 25 mph 1013.2mb 27f
3:00am 22 25 mph 1012.9mb 28f
2:50am 23 26 mph 1012.9mb 28f
2:40am 20 25 mph 1012.9mb 28f
2:30am 21 26 mph 1012.9mb 29f
2:20am 22 28 mph 1012.9mb 28f
2:10am 23 28 mph 1012.5mb 28f
2:00am 23 29 mph 1012.5mb 29f
1:50am 23 28 mph 1012.5mb 29f
1:40am 23 26 mph 1012.9mb 29f
1:30am 20 24 mph 1012.9mb 29f
1:20am 21 25 mph 1013.2mb 29f
1:10am 22 25 mph 1013.2mb 30f
1:00am 22 25 mph 1012.9mb 30f
12:50am 23 25 mph 1013.2mb 30f
12:40am 21 24 mph 1013.2mb 31f
12:30am 21 24 mph 1013.2mb 31f
12:20am 18 24 mph 1013.2mb 31f
12:10am 14 20 mph 1013.2mb 31f
12:00am 5 7 mph 1013.2mb 30f
Thu 02/23 11:50pm  -  2 mph 1013.5mb 30f
11:40pm  -  2 mph 1013.5mb 30f
11:30pm  -  2 mph 1013.5mb 30f
11:20pm 2 3 mph 1013.5mb 30f
11:10pm 1 3 mph 1013.2mb 30f
11:00pm  -  3 mph 1012.9mb 30f
10:40pm 2 6 mph 1012.9mb 30f
10:30pm 3 6 mph 1013.5mb 30f
10:20pm 2 6 mph 1013.5mb 30f
10:10pm 3 7 mph 1013.5mb 30f
10:00pm 3 6 mph 1013.2mb 30f
9:50pm 2 6 mph 1013.2mb 30f
9:40pm 3 7 mph 1013.2mb 30f
9:30pm 2 6 mph 1013.5mb 30f
9:20pm 3 7 mph 1013.5mb 30f
9:10pm 3 7 mph 1013.5mb 30f
9:00pm 2 7 mph 1013.9mb 30f
8:50pm 3 8 mph 1013.5mb 31f
8:40pm 2 8 mph 1013.5mb 31f
8:30pm 3 10 mph 1013.5mb 31f
8:20pm 6 9 mph 1013.5mb 31f
8:10pm 5 8 mph 1013.5mb 31f
8:00pm 2 7 mph 1013.5mb 31f
7:50pm 3 6 mph 1013.2mb 31f
7:30pm 1 5 mph 1012.5mb 31f
7:20pm 2 3 mph 1012.5mb 31f
7:10pm 2 6 mph 1012.5mb 31f
7:00pm 2 5 mph 1012.5mb 31f
6:50pm 2 5 mph 1012.9mb 30f
6:40pm 2 6 mph 1012.9mb 30f
6:30pm 2 3 mph 1012.9mb 30f